User: anonymous   Login
Location: Unspecified
(0.0000°N, 0.0000°E)
Time: 05:12:54
(UTC+00:00)
Language:

Explorer 11/Cluster Stage 4 - Orbit

View from above orbital plane
View from above orbital plane
View from above satellite
View from above satellite

Ground track
Ground track

The orbit data is extracted from the following two-line orbital elements,

1   107U 61013A   18050.08781214 +.00000366 +00000-0 +26333-4 0  9990
2   107 028.7912 296.8639 0548557 252.0474 101.9575 14.08523751845900
Epoch (UTC): 19 February 2018 02:06:26
Eccentricity: 0.0548557
inclination: 28.7912°
perigee height: 467 km
apogee height: 1262 km
right ascension of ascending node: 296.8639°
argument of perigee: 252.0474°
revolutions per day: 14.08523751
mean anomaly at epoch: 101.9575°
orbit number at epoch: 84590

The dashed part of the orbit path shows where the satellite is in the earth's shadow,  

DLR